Find Starlink 33616

NORAD ID: 63385 Int'l Des: 2025-063 Owner: SPXS Country: US Constellation: starlink operational
LEOCIRCULAR

Current View

Loading 3D Globe...

About Starlink 33616

Description loading...

Upcoming Passes

Passes for default location (London). Set your location on the main map for personalized predictions.

Altitude History

Loading altitude history...

Two-Line Element Set

1 63385U 25063Y 26150.94784613 .00017963 00000-0 61724-3 0 9996
2 63385 53.1611 41.0315 0001361 68.2568 291.8578 15.30194925 67152
Epoch: May 30, 2026 • Age: 19 hours

Current Status

Altitude 478.7 km
Velocity 7.63 km/s
Sub-Earth Point 44.22°N, 72.74°W
Launch Date Mar 26, 2025
Age 1.1 years
Type internet

Technical Details

Classification Payload
Mass 575.00 kg
Dry Mass 530.00 kg
Total Mass 575.00 kg
Length 0.30 m
Diameter 4.10 m
Span 29.00 m
Shape Box + pan
Manufacturer SPXS
Bus Type Starlink V2MO
Phase Status In Orbit
Owner/State SPXS/US

Most Searched